This demonstration page uses our WeatherBlox Daily Observations layout. Learn more.

38.89511, -77.03637

Hourly Observations for August 28, 2015

Temp ( °F °C ) Dew Point ( °F °C ) Humidity (%) Winds ( mph kmh ) Pressure ( in mb ) Visibility ( mi km ) Precip ( " mm )
12:52 am 00:52 Mostly Clear 71 21.7 59 15 66 66 Calm 30.17 1022 10 16.0934 0 0
1:52 am 01:52 Partly Cloudy 68 20 60 15.6 76 76 NNW 3 6 30.16 1021 10 16.0934 0 0
2:52 am 02:52 Mostly Cloudy 68 20 60 15.6 76 76 N 3 6 30.16 1021 10 16.0934 0 0
3:52 am 03:52 Mostly Clear 68 20 61 16.1 78 78 NE 3 6 30.15 1021 10 16.0934 0 0
4:52 am 04:52 Mostly Clear 65 18.3 59 15 81 81 NNW 6 9 30.15 1021 10 16.0934 0 0
5:52 am 05:52 Mostly Clear 66 18.9 59 15 78 78 Calm 30.16 1021 10 16.0934 0 0
6:52 am 06:52 Partly Cloudy 66 18.9 60 15.6 81 81 ENE 5 7 30.17 1022 10 16.0934 0 0
7:52 am 07:52 Partly Cloudy 69 20.6 60 15.6 73 73 Calm 30.19 1022 10 16.0934 0 0
8:52 am 08:52 Mostly Sunny 70 21.1 59 15 68 68 Calm 30.21 1023 10 16.0934 0 0
9:52 am 09:52 Mostly Sunny 75 23.9 58 14.4 55 55 Calm 30.22 1023 10 16.0934 0 0
10:52 am 10:52 Mostly Sunny 77 25 56 13.3 48 48 E 3 6 30.22 1023 10 16.0934 0 0
11:52 am 11:52 Partly Cloudy 78 25.6 57 13.9 48 48 E 3 6 30.21 1023 10 16.0934 0 0
12:52 pm 12:52 Mostly Cloudy 80 26.7 56 13.3 44 44 Calm 30.2 1023 10 16.0934 0 0
1:52 pm 13:52 Mostly Cloudy 82 27.8 58 14.4 44 44 S 5 7 30.19 1022 10 16.0934 0 0
2:52 pm 14:52 Mostly Cloudy 82 27.8 58 14.4 44 44 S 7 11 30.17 1022 10 16.0934 0 0
3:52 pm 15:52 Mostly Cloudy 81 27.2 58 14.4 45 45 SSE 5 7 30.15 1021 10 16.0934 0 0
4:52 pm 16:52 Partly Cloudy 82 27.8 58 14.4 44 44 SSE 6 9 30.14 1021 10 16.0934 0 0
5:52 pm 17:52 Partly Cloudy 82 27.8 58 14.4 44 44 SSE 3 6 30.14 1021 10 16.0934 0 0
6:52 pm 18:52 Partly Cloudy 80 26.7 62 16.7 54 54 SE 13 20 30.14 1021 10 16.0934 0 0
7:52 pm 19:52 Partly Cloudy 77 25 62 16.7 60 60 SE 9 15 30.15 1021 10 16.0934 0 0
8:52 pm 20:52 Clear 75 23.9 60 15.6 60 60 SE 5 7 30.18 1022 10 16.0934 0 0
9:52 pm 21:52 Mostly Clear 74 23.3 60 15.6 62 62 SSE 5 7 30.19 1023 10 16.0934 0 0
10:52 pm 22:52 Partly Cloudy 73 22.8 61 16.1 66 66 S 5 7 30.2 1023 10 16.0934 0 0
11:52 pm 23:52 Mostly Cloudy 72 22.2 61 16.1 68 68 SSE 3 6 30.2 1023 10 16.0934 0 0

Powered by AerisWeather